When you browse on this site, cookies collect data to enhance your experience and personalize the content and advertising you see.
Visit our Privacy Policy to learn more. By continuing to use the site, you agree to this use of cookies and data.
  • Em Portugal
  • Lista de países
  • Para 7 dias
  • Temperatura da água
  • Mapa do tempo
  • Widgets de tempo
  • user-avatar
    Iniciar Sessão

    Previsão horária em Bregenz

    Hoje, 23 Setembro, Segunda-feira

    Tempo Temperatura Precipitação Vento Pressão Humidade
    00:00 +9°C° 0 mm 2 m/s 644 mmHg 86%
    01:00 +9°C° 0 mm 3 m/s 645 mmHg 86%
    02:00 +8°C° 0.6 mm 2 m/s 645 mmHg 90%
    03:00 +8°C° 0.6 mm 2 m/s 645 mmHg 93%
    04:00 +8°C° 0.6 mm 2 m/s 645 mmHg 97%
    05:00 +8°C° 1.2 mm 2 m/s 645 mmHg 97%
    06:00 +7°C° 1.2 mm 2 m/s 645 mmHg 97%
    07:00 +7°C° 1.2 mm 2 m/s 645 mmHg 97%
    08:00 +7°C° 1.7 mm 2 m/s 646 mmHg 96%
    09:00 +7°C° 1.7 mm 2 m/s 646 mmHg 95%
    10:00 +7°C° 1.7 mm 2 m/s 646 mmHg 95%
    11:00 +9°C° 0.7 mm 1 m/s 646 mmHg 91%
    12:00 +9°C° 0.7 mm 1 m/s 647 mmHg 88%
    13:00 +10°C° 0.7 mm 1 m/s 647 mmHg 84%
    14:00 +11°C° 0 mm 1 m/s 647 mmHg 79%
    15:00 +11°C° 0 mm 1 m/s 647 mmHg 74%
    16:00 +12°C° 0 mm 1 m/s 647 mmHg 68%
    17:00 +10°C° 0 mm 1 m/s 647 mmHg 75%
    18:00 +8°C° 0 mm 1 m/s 646 mmHg 81%
    19:00 +7°C° 0 mm 1 m/s 646 mmHg 88%
    20:00 +6°C° 0 mm 1 m/s 646 mmHg 88%
    21:00 +6°C° 0 mm 1 m/s 646 mmHg 88%
    22:00 +6°C° 0 mm 1 m/s 647 mmHg 88%
    23:00 +5°C° 0 mm 1 m/s 646 mmHg 88%

    Amanhã, 24 Setembro, Terça-feira

    Tempo Temperatura Precipitação Vento Pressão Humidade
    00:00 +5°C° 0 mm 1 m/s 646 mmHg 88%
    01:00 +5°C° 0 mm 1 m/s 646 mmHg 88%
    02:00 +5°C° 0 mm 1 m/s 646 mmHg 88%
    03:00 +5°C° 0 mm 1 m/s 646 mmHg 87%
    04:00 +4°C° 0 mm 1 m/s 645 mmHg 87%
    05:00 +5°C° 0 mm 1 m/s 645 mmHg 85%
    06:00 +5°C° 0 mm 1 m/s 645 mmHg 83%
    07:00 +5°C° 0 mm 1 m/s 645 mmHg 81%
    08:00 +8°C° 0 mm 1 m/s 645 mmHg 72%
    09:00 +10°C° 0 mm 1 m/s 646 mmHg 63%
    10:00 +13°C° 0 mm 1 m/s 646 mmHg 54%
    11:00 +13°C° 0 mm 1 m/s 646 mmHg 53%
    12:00 +14°C° 0 mm 1 m/s 646 mmHg 53%
    13:00 +14°C° 0 mm 1 m/s 645 mmHg 52%
    14:00 +14°C° 0 mm 1 m/s 645 mmHg 59%
    15:00 +13°C° 0 mm 1 m/s 645 mmHg 65%
    16:00 +12°C° 0 mm 1 m/s 644 mmHg 72%
    17:00 +11°C° 0.2 mm 1 m/s 644 mmHg 78%
    18:00 +9°C° 0.2 mm 1 m/s 644 mmHg 85%
    19:00 +8°C° 0.2 mm 1 m/s 644 mmHg 91%
    20:00 +8°C° 0.4 mm 1 m/s 644 mmHg 91%
    21:00 +8°C° 0.4 mm 1 m/s 644 mmHg 92%
    22:00 +7°C° 0.4 mm 2 m/s 644 mmHg 92%
    23:00 +7°C° 0.8 mm 2 m/s 644 mmHg 92%

    Depois de amanhã, 25 Setembro, Quarta-feira

    Tempo Temperatura Precipitação Vento Pressão Humidade
    00:00 +7°C° 0.8 mm 2 m/s 643 mmHg 93%
    01:00 +8°C° 0.8 mm 1 m/s 643 mmHg 93%
    02:00 +8°C° 0.2 mm 1 m/s 643 mmHg 93%
    03:00 +8°C° 0.2 mm 1 m/s 643 mmHg 92%
    04:00 +8°C° 0.2 mm 1 m/s 643 mmHg 92%
    05:00 +8°C° 0.2 mm 1 m/s 643 mmHg 92%
    06:00 +8°C° 0.2 mm 1 m/s 643 mmHg 93%
    07:00 +8°C° 0.2 mm 1 m/s 643 mmHg 93%
    08:00 +8°C° 0.3 mm 1 m/s 643 mmHg 93%
    09:00 +8°C° 0.3 mm 1 m/s 643 mmHg 94%
    10:00 +8°C° 0.3 mm 1 m/s 643 mmHg 94%
    11:00 +8°C° 0.6 mm 1 m/s 643 mmHg 92%
    12:00 +7°C° 0.6 mm 2 m/s 643 mmHg 90%
    13:00 +7°C° 0.6 mm 2 m/s 643 mmHg 88%
    14:00 +7°C° 0.4 mm 2 m/s 643 mmHg 89%
    15:00 +8°C° 0.4 mm 1 m/s 643 mmHg 90%
    16:00 +8°C° 0.4 mm 1 m/s 643 mmHg 91%
    17:00 +8°C° 0.2 mm 1 m/s 643 mmHg 91%
    18:00 +7°C° 0.2 mm 1 m/s 643 mmHg 91%
    19:00 +7°C° 0.2 mm 1 m/s 644 mmHg 91%
    20:00 +7°C° 0.1 mm 1 m/s 644 mmHg 91%
    21:00 +7°C° 0.1 mm 1 m/s 644 mmHg 92%
    22:00 +7°C° 0.1 mm 1 m/s 644 mmHg 92%
    23:00 +7°C° 0 mm 1 m/s 644 mmHg 91%

    26 Setembro, Quinta-feira

    Tempo Temperatura Precipitação Vento Pressão Humidade
    00:00 +7°C° 0 mm 1 m/s 644 mmHg 90%
    01:00 +6°C° 0 mm 1 m/s 644 mmHg 89%
    02:00 +7°C° 0.1 mm 1 m/s 644 mmHg 90%
    03:00 +7°C° 0.1 mm 1 m/s 644 mmHg 90%
    04:00 +7°C° 0.1 mm 1 m/s 645 mmHg 91%
    05:00 +7°C° 0.5 mm 1 m/s 645 mmHg 92%
    06:00 +6°C° 0.5 mm 2 m/s 645 mmHg 92%
    07:00 +6°C° 0.5 mm 2 m/s 645 mmHg 93%
    08:00 +7°C° 0.1 mm 2 m/s 646 mmHg 91%
    09:00 +9°C° 0.1 mm 1 m/s 646 mmHg 89%
    10:00 +10°C° 0.1 mm 1 m/s 647 mmHg 87%
    11:00 +11°C° 0 mm 1 m/s 647 mmHg 81%
    12:00 +12°C° 0 mm 1 m/s 648 mmHg 75%
    13:00 +14°C° 0 mm 1 m/s 648 mmHg 69%
    14:00 +14°C° 0 mm 1 m/s 648 mmHg 69%
    15:00 +14°C° 0 mm 1 m/s 648 mmHg 68%
    16:00 +14°C° 0 mm 1 m/s 648 mmHg 68%
    17:00 +12°C° 0 mm 1 m/s 648 mmHg 75%
    18:00 +10°C° 0 mm 1 m/s 647 mmHg 83%
    19:00 +8°C° 0 mm 0 m/s 647 mmHg 90%
    20:00 +9°C° 0 mm 1 m/s 647 mmHg 88%
    21:00 +9°C° 0 mm 1 m/s 647 mmHg 87%
    22:00 +9°C° 0 mm 1 m/s 647 mmHg 85%
    23:00 +9°C° 0 mm 1 m/s 647 mmHg 84%

    27 Setembro, Sexta-feira

    Tempo Temperatura Precipitação Vento Pressão Humidade
    00:00 +9°C° 0 mm 1 m/s 647 mmHg 83%
    01:00 +9°C° 0 mm 1 m/s 647 mmHg 82%
    02:00 +9°C° 0 mm 1 m/s 647 mmHg 83%
    03:00 +8°C° 0 mm 1 m/s 647 mmHg 85%
    04:00 +8°C° 0 mm 1 m/s 647 mmHg 86%
    05:00 +8°C° 0 mm 1 m/s 647 mmHg 85%
    06:00 +9°C° 0 mm 1 m/s 647 mmHg 84%
    07:00 +9°C° 0 mm 1 m/s 647 mmHg 83%
    08:00 +11°C° 0 mm 1 m/s 647 mmHg 77%
    09:00 +13°C° 0 mm 1 m/s 648 mmHg 71%
    10:00 +14°C° 0 mm 0 m/s 649 mmHg 65%
    11:00 +15°C° 0.1 mm 1 m/s 648 mmHg 66%
    12:00 +16°C° 0.1 mm 1 m/s 648 mmHg 67%
    13:00 +16°C° 0.1 mm 1 m/s 648 mmHg 68%
    14:00 +15°C° 0.6 mm 1 m/s 648 mmHg 74%
    15:00 +15°C° 0.6 mm 1 m/s 647 mmHg 80%
    16:00 +14°C° 0.6 mm 1 m/s 647 mmHg 86%
    17:00 +13°C° 0.6 mm 1 m/s 647 mmHg 87%
    18:00 +12°C° 0.6 mm 1 m/s 647 mmHg 89%
    19:00 +11°C° 0.6 mm 1 m/s 647 mmHg 91%
    20:00 +10°C° 0.2 mm 1 m/s 647 mmHg 91%
    21:00 +10°C° 0.2 mm 1 m/s 647 mmHg 92%
    22:00 +10°C° 0.2 mm 1 m/s 647 mmHg 92%
    23:00 +9°C° 0.9 mm 1 m/s 646 mmHg 94%

    28 Setembro, Sábado

    Tempo Temperatura Precipitação Vento Pressão Humidade
    00:00 +9°C° 0.9 mm 1 m/s 646 mmHg 95%
    01:00 +9°C° 0.9 mm 1 m/s 646 mmHg 97%
    02:00 +9°C° 1.2 mm 1 m/s 646 mmHg 97%
    03:00 +9°C° 1.2 mm 1 m/s 646 mmHg 97%
    04:00 +8°C° 1.2 mm 0 m/s 646 mmHg 97%
    05:00 +9°C° 1 mm 1 m/s 646 mmHg 97%
    06:00 +9°C° 1 mm 1 m/s 646 mmHg 97%
    07:00 +9°C° 1 mm 1 m/s 646 mmHg 97%
    08:00 +9°C° 0.3 mm 1 m/s 646 mmHg 95%
    09:00 +8°C° 0.3 mm 2 m/s 646 mmHg 94%
    10:00 +8°C° 0.3 mm 2 m/s 646 mmHg 93%
    11:00 +8°C° 0.1 mm 2 m/s 646 mmHg 92%
    12:00 +9°C° 0.1 mm 1 m/s 646 mmHg 90%
    13:00 +9°C° 0.1 mm 1 m/s 646 mmHg 88%
    14:00 +10°C° 0 mm 1 m/s 646 mmHg 87%
    15:00 +10°C° 0 mm 1 m/s 646 mmHg 86%
    16:00 +10°C° 0 mm 1 m/s 646 mmHg 85%
    17:00 +9°C° 0 mm 1 m/s 646 mmHg 86%
    18:00 +9°C° 0 mm 1 m/s 646 mmHg 87%
    19:00 +8°C° 0 mm 1 m/s 646 mmHg 89%
    20:00 +8°C° 0 mm 1 m/s 646 mmHg 88%
    21:00 +8°C° 0 mm 1 m/s 646 mmHg 87%
    22:00 +8°C° 0 mm 1 m/s 647 mmHg 86%
    23:00 +8°C° 0 mm 1 m/s 646 mmHg 86%
    Mostrar mais